| time (UTC) | temp F | wind direction | speed knots | gust knots | rain 1hr in | rain 24hr in | rain mn in | humidity % | barometer mb |
| 20260504041536 | 42 | 227 | 0.0 | 0.9 | 0.00 | 0.07 | 0.00 | 91 | 1008.0 |
| 20260504040035 | 42 | 242 | 0.0 | 1.7 | 0.01 | 0.07 | 0.07 | 90 | 1008.2 |
| 20260504034539 | 43 | 276 | 0.0 | 0.9 | 0.02 | 0.07 | 0.07 | 90 | 1008.2 |
| 20260504033043 | 43 | 360 | 0.0 | 0.0 | 0.04 | 0.07 | 0.07 | 90 | 1008.4 |
| 20260504031533 | 43 | 279 | 0.0 | 1.7 | 0.05 | 0.07 | 0.07 | 90 | 1008.5 |
| 20260504030028 | 42 | 278 | 0.0 | 3.5 | 0.05 | 0.06 | 0.06 | 90 | 1008.7 |
| 20260504024528 | 43 | 212 | 2.6 | 4.3 | 0.03 | 0.05 | 0.05 | 89 | 1008.9 |
| 20260504023026 | 43 | 360 | 0.9 | 4.3 | 0.02 | 0.03 | 0.03 | 89 | 1008.7 |
| 20260504021532 | 43 | 360 | 0.9 | 4.3 | 0.02 | 0.02 | 0.02 | 89 | 1008.6 |
| 20260504020024 | 42 | 360 | 0.9 | 3.5 | 0.01 | 0.02 | 0.02 | 88 | 1009.0 |
| 20260504014523 | 42 | 360 | 1.7 | 4.3 | 0.02 | 0.02 | 0.02 | 88 | 1008.7 |
| 20260504013032 | 43 | 360 | 1.7 | 4.3 | 0.01 | 0.01 | 0.01 | 86 | 1008.9 |
| 20260504011521 | 42 | 360 | 0.9 | 4.3 | 0.01 | 0.01 | 0.01 | 85 | 1008.9 |
| 20260504010020 | 42 | 215 | 0.9 | 5.2 | 0.01 | 0.01 | 0.01 | 84 | 1008.8 |
| 20260504004519 | 43 | 360 | 1.7 | 7.0 | 0.00 | 0.00 | 0.00 | 79 | 1009.1 |
| 20260504003017 | 43 | 360 | 1.7 | 4.3 | 0.00 | 0.00 | 0.00 | 76 | 1009.0 |
| 20260504001518 | 43 | 360 | 0.9 | 5.2 | 0.00 | 0.00 | 0.00 | 76 | 1008.9 |
| 20260504000016 | 42 | 360 | 0.9 | 3.5 | 0.00 | 0.00 | 0.00 | 76 | 1009.1 |
| 20260503234516 | 42 | 202 | 0.9 | 4.3 | 0.00 | 0.00 | 0.00 | 75 | 1009.0 |
| 20260503233015 | 42 | 360 | 0.9 | 5.2 | 0.00 | 0.00 | 0.00 | 75 | 1009.1 |
| 20260503231515 | 42 | 193 | 1.7 | 5.2 | 0.00 | 0.00 | 0.00 | 76 | 1009.1 |
| 20260503230018 | 42 | 187 | 1.7 | 3.5 | 0.00 | 0.00 | 0.00 | 77 | 1008.9 |
| 20260503224514 | 42 | 181 | 0.9 | 2.6 | 0.00 | 0.00 | 0.00 | 76 | 1008.8 |
| 20260503223028 | 42 | 167 | 1.7 | 5.2 | 0.00 | 0.00 | 0.00 | 76 | 1008.9 |
| 20260503221515 | 43 | 155 | 0.9 | 2.6 | 0.00 | 0.00 | 0.00 | 75 | 1009.1 |
| 20260503220015 | 42 | 192 | 0.9 | 3.5 | 0.00 | 0.00 | 0.00 | 74 | 1009.2 |
| 20260503214513 | 42 | 144 | 0.9 | 3.5 | 0.00 | 0.00 | 0.00 | 75 | 1009.3 |
| 20260503213025 | 43 | 360 | 0.9 | 3.5 | 0.00 | 0.00 | 0.00 | 74 | 1009.2 |
| 20260503211516 | 43 | 170 | 1.7 | 7.0 | 0.00 | 0.00 | 0.00 | 74 | 1009.1 |
| 20260503210009 | 45 | 360 | 2.6 | 4.3 | 0.00 | 0.00 | 0.00 | 71 | 1009.2 |
| 20260503204507 | 45 | 196 | 1.7 | 5.2 | 0.00 | 0.00 | 0.00 | 71 | 1009.3 |
| 20260503203005 | 48 | 360 | 1.7 | 5.2 | 0.00 | 0.00 | 0.00 | 68 | 1009.4 |
| 20260503201502 | 47 | 360 | 2.6 | 5.2 | 0.00 | 0.00 | 0.00 | 69 | 1009.8 |
| 20260503200100 | 48 | 180 | 2.6 | 7.0 | 0.00 | 0.00 | 0.00 | 67 | 1010.0 |
| 20260503194559 | 53 | 360 | 3.5 | 8.7 | 0.00 | 0.00 | 0.00 | 44 | 1010.1 |
| 20260503193111 | 51 | 360 | 3.5 | 9.6 | 0.00 | 0.00 | 0.00 | 52 | 1010.4 |
| 20260503191552 | 48 | 360 | 1.7 | 5.2 | 0.00 | 0.00 | 0.00 | 66 | 1010.8 |
| 20260503190049 | 50 | 360 | 3.5 | 10.4 | 0.00 | 0.00 | 0.00 | 59 | 1010.9 |
| 20260503184549 | 50 | 360 | 2.6 | 8.7 | 0.00 | 0.00 | 0.00 | 62 | 1011.0 |
| 20260503183047 | 50 | 225 | 2.6 | 9.6 | 0.00 | 0.00 | 0.00 | 65 | 1011.1 |
| 20260503181617 | 49 | 360 | 4.3 | 10.4 | 0.00 | 0.00 | 0.00 | 62 | 1011.3 |
| 20260503180045 | 49 | 360 | 4.3 | 10.4 | 0.00 | 0.00 | 0.00 | 60 | 1011.4 |
| 20260503174548 | 50 | 188 | 3.5 | 9.6 | 0.00 | 0.00 | 0.00 | 62 | 1011.3 |
| 20260503173052 | 50 | 360 | 5.2 | 11.3 | 0.00 | 0.00 | 0.00 | 60 | 1011.6 |
| 20260503171539 | 49 | 360 | 4.3 | 8.7 | 0.00 | 0.00 | 0.00 | 61 | 1011.7 |
| 20260503100106 | 33 | 294 | 0.0 | 1.7 | 0.00 | 0.00 | 0.00 | 72 | 1013.1 |
| 20260503081539 | 35 | 296 | 0.0 | 1.7 | 0.00 | 0.00 | 0.00 | 71 | 1013.2 |
| 20260503071535 | 36 | 296 | 0.9 | 3.5 | 0.00 | 0.00 | 0.00 | 70 | 1013.3 |
| 20260503054521 | 38 | 261 | 0.9 | 3.5 | 0.00 | 0.00 | 0.00 | 74 | 1013.7 |
| 20260503053022 | 39 | 360 | 1.7 | 5.2 | 0.00 | 0.00 | 0.00 | 76 | 1013.8 |
| 20260503051512 | 39 | 273 | 0.9 | 5.2 | 0.00 | 0.00 | 0.00 | 75 | 1013.9 |
| 20260503050011 | 39 | 360 | 0.9 | 4.3 | 0.00 | 0.00 | 0.00 | 75 | 1014.0 |
| 20260503044513 | 40 | 360 | 0.9 | 4.3 | 0.00 | 0.00 | 0.00 | 76 | 1014.0 |
| 20260503043007 | 39 | 360 | 2.6 | 5.2 | 0.00 | 0.00 | 0.00 | 78 | 1014.1 |